Location: Sewell
(39.7660°N, 75.1450°W)
Time: 04:02:15
(UTC-04:00)

ISS - Visible Passes

Search period start: 01 April 2015 00:00
Search period end: 11 April 2015 00:00
Orbit: 396 x 405 km, 51.6° (Epoch: 01 April)

Date Brightness Start Highest point End Pass type
(mag) Time Alt. Az. Time Alt. Az. Time Alt. Az.
01 Apr -2.8 05:27:08 35° SW 05:27:10 35° SW 05:30:08 10° SSE visible
02 Apr -1.3 21:08:43 10° SSW 21:09:49 19° SSW 21:09:49 19° SSW visible
03 Apr -2.1 20:15:47 10° S 20:18:26 23° SE 20:19:58 17° E visible
03 Apr -0.6 21:51:39 10° W 21:52:37 17° W 21:52:37 17° W visible
04 Apr -3.1 20:57:49 10° WSW 21:01:04 70° NW 21:02:26 31° NE visible
05 Apr -3.2 20:04:17 10° SW 20:07:29 56° SE 20:10:41 10° ENE visible
05 Apr -1.0 21:41:28 10° WNW 21:44:05 21° NNW 21:44:30 21° NNW visible
06 Apr -1.6 20:47:15 10° W 20:50:16 33° NNW 20:53:16 10° NE visible
06 Apr 0.3 22:26:05 10° NW 22:26:14 10° NNW 22:26:14 10° NNW visible
07 Apr -2.8 19:53:16 10° WSW 19:56:30 61° NW 19:59:44 10° NE visible
07 Apr -0.4 21:31:27 10° NW 21:33:25 15° NNW 21:35:06 11° NNE visible
08 Apr -0.8 20:36:56 10° WNW 20:39:27 20° NNW 20:41:57 10° NNE visible
08 Apr 0.0 22:16:09 10° NNW 22:16:22 10° N 22:16:22 10° N visible
09 Apr -0.3 21:21:30 10° NNW 21:22:43 12° N 21:23:54 10° NNE visible
10 Apr -0.5 20:26:45 10° NW 20:28:37 14° NNW 20:30:26 10° NNE visible
10 Apr -0.2 22:05:16 10° N 22:05:53 11° N 22:05:53 11° N visible
